TimeEST,TemperatureF,Dew PointF,Humidity,Sea Level PressureIn,VisibilityMPH,Wind Direction,Wind SpeedMPH,Gust SpeedMPH,PrecipitationIn,Events,Conditions,WindDirDegrees,DateUTC
12:53 AM,16.0,12.9,88,30.19,5.0,Calm,Calm,-,N/A,,Clear,0,2013-02-25 05:53:00
1:53 AM,15.1,12.0,88,30.19,7.0,Calm,Calm,-,N/A,,Clear,0,2013-02-25 06:53:00
2:53 AM,17.1,12.9,84,30.19,8.0,Calm,Calm,-,N/A,,Scattered Clouds,0,2013-02-25 07:53:00
3:53 AM,14.0,10.0,84,30.19,7.0,South,3.5,-,N/A,,Clear,190,2013-02-25 08:53:00
4:32 AM,14.0,10.4,86,30.14,6.0,Calm,Calm,-,N/A,,Scattered Clouds,0,2013-02-25 09:32:00
4:42 AM,12.2,8.6,85,30.14,8.0,Calm,Calm,-,N/A,,Mostly Cloudy,0,2013-02-25 09:42:00
4:48 AM,12.2,10.4,92,30.14,1.2,Calm,Calm,-,N/A,,Mostly Cloudy,0,2013-02-25 09:48:00
4:53 AM,14.0,10.9,88,30.19,0.2,Calm,Calm,-,N/A,Fog,Light Freezing Fog,0,2013-02-25 09:53:00
5:53 AM,15.1,12.0,88,30.20,0.2,Calm,Calm,-,N/A,Fog,Light Freezing Fog,0,2013-02-25 10:53:00
6:43 AM,15.8,10.4,79,30.17,1.0,Calm,Calm,-,N/A,,Mist,0,2013-02-25 11:43:00
6:51 AM,15.8,12.2,86,30.17,2.5,Calm,Calm,-,N/A,,Overcast,0,2013-02-25 11:51:00
6:53 AM,16.0,12.0,84,30.22,2.5,Calm,Calm,-,N/A,,Overcast,0,2013-02-25 11:53:00
7:04 AM,15.8,10.4,79,30.17,0.8,Calm,Calm,-,N/A,,Mist,0,2013-02-25 12:04:00
7:20 AM,15.8,10.4,79,30.18,2.0,Calm,Calm,-,N/A,,Haze,0,2013-02-25 12:20:00
7:33 AM,14.0,10.4,86,30.18,0.5,Calm,Calm,-,N/A,Fog,Light Freezing Fog,0,2013-02-25 12:33:00
7:40 AM,15.8,12.2,86,30.18,0.2,Calm,Calm,-,N/A,Fog,Light Freezing Fog,0,2013-02-25 12:40:00
7:53 AM,16.0,12.0,84,30.23,0.2,Calm,Calm,-,N/A,Fog,Light Freezing Fog,0,2013-02-25 12:53:00
8:04 AM,15.8,12.2,86,30.19,1.0,Calm,Calm,-,N/A,,Mist,0,2013-02-25 13:04:00
8:23 AM,15.8,12.2,86,30.21,0.5,Calm,Calm,-,N/A,Fog,Light Freezing Fog,0,2013-02-25 13:23:00
8:32 AM,17.6,15.8,93,30.21,0.2,Calm,Calm,-,N/A,Fog,Light Freezing Fog,0,2013-02-25 13:32:00
8:50 AM,19.4,19.4,100,30.20,1.0,Calm,Calm,-,N/A,,Mist,0,2013-02-25 13:50:00
8:53 AM,19.0,19.0,100,30.25,1.5,Calm,Calm,-,N/A,,Scattered Clouds,0,2013-02-25 13:53:00
9:04 AM,19.4,19.4,100,30.19,2.5,Calm,Calm,-,N/A,,Partly Cloudy,0,2013-02-25 14:04:00
9:18 AM,21.2,21.2,100,30.19,3.0,Calm,Calm,-,N/A,,Clear,0,2013-02-25 14:18:00
9:53 AM,24.1,21.9,91,30.23,3.0,Calm,Calm,-,N/A,,Clear,0,2013-02-25 14:53:00
10:53 AM,30.0,24.1,79,30.22,10.0,SSE,3.5,-,N/A,,Clear,160,2013-02-25 15:53:00
11:53 AM,35.1,23.0,61,30.22,10.0,Calm,Calm,-,N/A,,Clear,0,2013-02-25 16:53:00
12:53 PM,37.0,21.9,54,30.19,10.0,Calm,Calm,-,N/A,,Clear,0,2013-02-25 17:53:00
1:53 PM,37.0,19.9,50,30.18,10.0,ENE,5.8,-,N/A,,Clear,70,2013-02-25 18:53:00
2:53 PM,37.9,19.9,48,30.17,10.0,Calm,Calm,-,N/A,,Clear,0,2013-02-25 19:53:00
3:53 PM,39.0,19.9,46,30.15,10.0,ENE,4.6,-,N/A,,Clear,60,2013-02-25 20:53:00
4:53 PM,39.0,19.9,46,30.14,10.0,SE,6.9,-,N/A,,Clear,130,2013-02-25 21:53:00
5:53 PM,37.9,21.0,51,30.14,10.0,Variable,4.6,-,N/A,,Clear,0,2013-02-25 22:53:00
6:53 PM,37.0,21.0,52,30.14,10.0,Calm,Calm,-,N/A,,Clear,0,2013-02-25 23:53:00
7:53 PM,35.1,21.0,57,30.13,10.0,ENE,4.6,-,N/A,,Clear,70,2013-02-26 00:53:00
8:53 PM,33.1,21.9,64,30.10,10.0,ENE,4.6,-,N/A,,Clear,70,2013-02-26 01:53:00
9:53 PM,30.9,21.0,67,30.09,10.0,NE,4.6,-,N/A,,Clear,50,2013-02-26 02:53:00
10:53 PM,30.9,21.9,69,30.11,10.0,East,4.6,-,N/A,,Clear,100,2013-02-26 03:53:00
11:53 PM,30.0,21.0,69,30.11,10.0,East,4.6,-,N/A,,Clear,90,2013-02-26 04:53:00